Wind_Speed
59 62 60 46 38 30 31 28 24 16 19 25 22 25 16 13 21 19 20 21 22 20 14 24 28 27 29 27 24 25 28 26 26 27 25 26 24 26 21 22 22 19 21 20
43 49 41 38 33 35 32 29 28 18 21 27 23 24 18 13 22 24 22 22 22 23 19 24 30 29 27 24 23 26 27 26 27 24 25 25 24 24 25 24 19 17 18 20
30 29 36 34 34 34 32 32 21 21 20 28 24 23 21 18 20 22 21 20 22 22 26 30 31 32 24 21 24 25 23 23 25 22 24 21 22 24 22 19 14 15 20 19
35 32 34 36 37 36 39 28 22 23 23 26 24 24 22 20 19 20 17 19 17 21 28 30 36 26 19 20 24 22 22 22 20 20 20 20 22 25 17 16 18 19 19 15
35 36 39 40 36 38 38 27 25 22 26 21 25 26 8 10 13 12 11 10 16 21 26 31 23 15 16 21 18 21 20 18 18 20 16 18 20 19 19 18 24 21 13 10
47 45 43 40 40 40 30 33 29 30 30 32 16 14 3 7 12 8 9 13 20 22 20 16 16 14 16 19 18 19 18 15 16 18 14 17 19 18 22 22 18 17 11 8
46 48 45 40 42 40 39 39 37 35 37 19 13 13 0 8 10 8 9 15 17 26 18 17 16 15 16 17 20 17 15 14 16 14 12 14 18 18 23 21 15 14 9 8
37 37 39 33 38 41 44 39 40 37 27 14 16 16 2 9 12 8 10 16 19 29 15 14 13 14 14 14 16 14 12 11 13 8 10 13 17 19 20 17 12 11 7 6
37 36 30 32 28 37 39 37 27 28 21 26 17 17 13 13 13 8 10 15 19 19 14 15 11 13 11 16 12 11 8 10 11 8 11 13 13 16 18 14 12 10 7 7
35 32 28 24 30 31 35 31 36 32 28 25 19 19 17 12 15 10 10 15 18 22 14 16 12 10 12 10 9 9 6 8 10 7 9 9 12 14 16 16 14 10 9 10
43 39 32 34 35 34 37 41 39 29 28 24 17 14 9 15 20 16 13 17 18 24 13 11 7 7 9 6 7 7 5 7 9 8 7 8 10 14 18 13 15 14 11 13
44 45 37 34 35 29 30 34 34 31 31 27 20 14 20 18 13 9 13 15 20 23 7 9 5 8 5 4 6 6 6 5 10 10 9 11 12 13 18 15 16 16 14 14
46 47 43 42 39 37 40 39 39 34 30 27 24 13 20 19 8 10 10 10 18 22 6 11 7 6 3 2 4 6 8 7 9 10 11 12 13 14 17 15 14 18 19 15
60 55 49 48 43 37 39 40 37 35 34 25 26 17 18 13 11 9 13 11 13 21 5 10 7 6 2 1 3 6 6 6 8 8 9 9 11 13 16 16 13 14 16 19
62 60 55 47 42 39 37 36 35 35 27 27 21 20 20 16 11 13 15 10 8 10 5 6 7 5 2 2 2 6 5 5 8 8 9 9 11 13 15 16 15 16 17 18
63 57 54 49 45 43 43 42 37 34 30 27 21 22 21 21 20 19 15 7 4 9 9 5 7 4 1 4 2 4 5 7 7 8 11 11 9 14 16 18 20 20 17 17
63 60 57 55 49 46 52 47 42 36 32 28 24 16 25 22 22 20 14 10 8 8 9 7 8 6 1 3 4 3 5 7 8 7 11 12 13 16 18 19 19 18 15 15
63 64 62 56 51 59 53 46 43 37 30 28 25 20 21 27 21 20 17 12 7 6 10 8 9 8 3 2 4 4 4 6 8 8 13 16 16 18 19 20 21 22 25 23
64 67 63 58 59 58 54 48 46 42 38 31 26 22 24 26 24 23 18 7 6 5 9 10 9 10 6 3 1 4 5 4 6 9 12 15 16 15 14 16 18 20 22 24
61 61 61 61 61 62 55 46 42 31 44 37 30 27 24 28 26 17 14 11 3 3 10 14 11 14 9 4 2 2 5 6 6 8 11 12 15 15 14 14 17 19 20 22
63 61 60 58 57 64 56 36 47 44 38 27 31 29 24 26 20 18 19 16 9 6 4 13 13 14 13 7 6 5 5 9 8 8 9 10 10 14 16 14 14 14 15 16
68 64 64 59 48 61 64 55 48 41 39 31 26 31 25 20 21 23 21 19 18 7 5 9 15 13 15 15 8 8 6 8 11 10 9 9 8 10 12 12 11 12 13 14
68 68 71 64 49 57 52 63 57 44 38 44 34 31 27 25 25 25 22 21 21 13 8 8 16 17 12 16 11 9 8 8 12 14 12 10 9 8 10 11 13 13 15 16
57 72 71 69 55 53 55 60 59 53 41 44 35 37 32 31 28 26 25 24 22 20 10 9 19 17 12 15 14 13 11 9 9 15 15 14 13 12 10 10 13 14 13 12
46 73 72 74 62 51 56 60 57 50 45 48 43 35 32 33 33 33 29 28 24 20 14 15 17 18 16 18 11 12 17 14 11 12 15 15 14 14 13 11 12 13 13 11
55 66 76 76 61 54 58 64 56 55 57 59 53 41 41 37 29 30 31 31 28 22 15 20 23 20 20 21 19 13 16 18 15 13 12 16 17 16 14 13 13 13 13 12
Wind_Direction
243 247 248 247 253 258 257 252 241 232 228 238 259 275 265 296 290 309 313 306 308 315 324 331 336 313 301 299 305 310 317 316 314 315 320 320 324 329 330 323 320 315 325 324
243 243 246 233 235 248 248 239 238 227 224 257 266 266 257 267 283 293 304 304 307 306 320 327 324 311 301 300 307 309 310 313 312 315 320 320 325 330 322 320 320 324 326 321
243 245 220 222 239 246 244 241 240 251 225 243 269 269 256 266 281 289 300 290 293 314 316 313 311 302 300 306 310 308 307 311 311 319 316 321 323 328 326 335 330 322 327 325
238 227 216 221 234 239 237 240 238 240 240 256 248 257 252 276 283 272 272 301 321 314 295 303 304 295 307 306 311 311 309 312 315 320 318 324 331 337 339 336 333 323 325 321
240 234 226 224 232 245 245 238 239 234 247 248 220 245 236 265 271 274 312 328 337 335 321 297 291 304 311 316 313 311 307 312 318 319 320 325 333 335 337 337 333 327 325 322
234 236 235 235 239 240 232 224 225 234 236 235 218 258 92 242 265 295 309 3 0 330 300 292 313 311 311 313 313 308 309 315 315 319 321 330 338 333 342 342 346 348 345 339
224 228 230 227 227 224 212 215 213 223 224 233 233 257 216 242 268 280 350 4 338 330 313 304 311 310 309 306 313 309 314 320 320 316 329 333 343 338 340 348 1 356 2 8
228 222 220 219 222 215 216 219 221 216 223 231 246 240 161 236 266 299 343 348 332 321 304 320 313 311 307 310 313 310 319 340 333 332 341 340 344 345 346 2 12 5 20 46
223 217 215 221 223 215 214 222 215 218 218 247 222 218 217 251 269 300 347 349 324 322 334 334 318 324 318 319 309 312 330 351 333 322 334 343 352 3 354 21 21 19 43 78
224 223 209 211 208 211 216 217 205 212 222 233 214 224 249 266 286 325 345 333 317 338 318 321 321 313 313 313 310 319 329 349 347 337 327 0 16 9 17 40 29 52 69 85
213 218 208 202 206 207 206 207 209 212 225 232 242 220 224 250 268 283 309 323 329 340 314 312 328 312 313 311 318 346 12 11 13 14 11 32 31 14 15 38 44 76 75 98
201 214 208 206 209 209 214 219 224 219 222 225 232 197 204 220 246 267 307 326 332 334 312 309 296 317 311 309 335 32 38 37 37 23 55 47 46 41 36 64 59 72 82 100
192 205 205 202 205 199 206 209 219 225 222 226 235 197 223 232 258 272 300 340 325 326 311 313 282 325 296 280 356 61 47 53 44 33 60 54 56 51 48 66 68 61 88 104
200 196 205 206 207 210 210 207 212 223 223 220 221 213 238 249 250 271 297 304 317 319 274 300 278 330 244 237 38 76 61 41 33 23 51 64 68 57 46 60 76 77 99 95
201 203 201 197 208 208 215 218 216 217 218 225 210 221 235 250 258 266 276 318 326 304 317 300 270 319 219 214 85 81 71 48 33 43 57 81 68 67 61 69 85 102 89 105
197 203 203 196 200 206 214 217 221 223 224 228 213 220 219 244 240 250 274 328 343 302 292 299 253 281 272 212 153 94 66 72 54 63 75 76 63 81 78 79 94 86 88 87
193 195 199 200 195 199 213 213 216 224 227 229 227 209 222 236 242 249 268 311 336 350 293 297 242 239 281 210 196 121 89 84 73 72 82 79 86 92 93 86 88 91 94 97
192 193 201 200 190 202 216 212 221 217 223 225 230 212 216 236 247 252 259 277 326 348 291 287 248 229 239 212 190 177 130 91 83 74 89 98 94 92 91 91 86 83 86 95
193 192 196 197 197 205 210 208 216 213 218 222 223 224 217 221 228 240 243 257 316 330 270 279 256 230 208 246 194 219 177 130 101 94 99 110 114 107 94 89 89 91 91 94
197 196 194 198 195 204 205 208 216 222 227 222 219 224 213 217 230 244 250 252 231 296 235 260 261 232 203 219 274 240 215 174 138 117 110 112 115 108 108 103 98 96 96 98
197 201 195 202 197 203 194 192 212 215 217 218 223 221 218 224 236 245 247 256 252 277 288 255 248 233 223 222 240 234 213 198 172 150 133 125 121 114 106 103 99 95 94 96
194 196 195 205 199 203 204 207 203 214 216 213 222 234 231 241 242 237 244 252 263 267 285 248 244 248 234 224 227 240 208 210 195 179 166 156 146 131 121 115 108 112 111 103
194 195 196 201 197 200 203 204 204 213 208 211 207 223 234 237 235 242 233 242 253 254 257 230 248 269 252 236 228 227 217 211 212 200 187 180 177 163 139 126 124 123 119 115
179 195 197 199 199 199 197 199 204 205 212 214 215 213 223 222 225 238 239 240 245 251 235 232 233 265 264 228 233 214 215 213 214 211 199 193 186 174 163 150 144 139 133 125
169 185 197 200 202 200 202 197 201 209 211 215 215 216 214 229 227 230 233 236 236 244 220 213 234 253 253 234 237 211 209 205 211 216 205 196 195 187 179 166 161 156 153 149
173 175 188 195 196 190 193 198 198 204 213 220 220 216 224 213 212 222 226 235 237 236 214 206 225 246 260 244 237 230 212 209 209 217 217 204 204 201 197 190 187 184 179 172
Height
5763 5764 5760 5778 5787 5788 5791 5792 5795 5799 5797 5794 5797 5796 5795 5796 5796 5796 5796 5797 5796 5795 5791 5787 5783 5780 5777 5774 5770 5765 5761 5756 5751 5748 5742 5736 5731 5725 5719 5715 5711 5706 5701 5696
5750 5748 5764 5771 5778 5780 5783 5785 5788 5793 5793 5790 5792 5790 5789 5789 5791 5791 5792 5793 5791 5790 5787 5785 5781 5777 5774 5769 5766 5761 5757 5752 5748 5744 5738 5732 5726 5721 5716 5711 5706 5703 5698 5693
5742 5754 5758 5763 5769 5772 5776 5778 5786 5788 5789 5785 5786 5784 5784 5785 5786 5787 5789 5789 5787 5784 5782 5780 5776 5773 5769 5765 5761 5757 5753 5749 5745 5740 5735 5729 5724 5719 5714 5708 5705 5701 5696 5690
5735 5745 5749 5755 5758 5765 5766 5777 5780 5780 5782 5781 5783 5779 5780 5782 5784 5785 5787 5786 5783 5780 5778 5775 5772 5769 5764 5761 5757 5753 5750 5746 5741 5737 5731 5726 5721 5716 5711 5708 5703 5699 5693 5688
5730 5737 5742 5747 5756 5760 5764 5772 5773 5775 5775 5775 5777 5776 5780 5778 5779 5780 5782 5781 5779 5775 5773 5771 5767 5764 5760 5757 5753 5750 5746 5743 5738 5734 5728 5724 5719 5716 5711 5706 5702 5694 5690 5686
5721 5727 5730 5738 5745 5749 5762 5761 5765 5768 5767 5763 5772 5773 5772 5772 5775 5777 5778 5773 5771 5771 5768 5766 5763 5760 5757 5754 5751 5747 5744 5740 5736 5731 5726 5722 5718 5714 5710 5705 5699 5694 5689 5684
5708 5713 5722 5729 5733 5740 5746 5750 5752 5755 5755 5760 5765 5765 5767 5769 5771 5773 5771 5769 5770 5768 5765 5762 5759 5756 5754 5751 5748 5744 5741 5737 5732 5728 5725 5721 5717 5713 5709 5704 5698 5693 5688 5685
5704 5710 5715 5723 5725 5733 5736 5743 5745 5746 5753 5758 5759 5760 5765 5767 5768 5768 5766 5766 5769 5765 5761 5758 5755 5753 5750 5748 5745 5742 5738 5735 5730 5726 5724 5720 5717 5713 5708 5703 5698 5693 5689 5686
5696 5702 5712 5716 5723 5730 5733 5733 5746 5746 5748 5752 5756 5757 5759 5761 5763 5764 5763 5766 5766 5763 5758 5755 5752 5750 5748 5747 5744 5741 5737 5733 5729 5726 5723 5720 5717 5713 5708 5703 5699 5694 5691 5688
5691 5697 5706 5711 5715 5721 5724 5736 5735 5735 5741 5745 5750 5752 5755 5756 5758 5759 5761 5765 5763 5757 5755 5753 5750 5748 5747 5745 5743 5739 5736 5732 5728 5725 5722 5720 5717 5714 5709 5704 5700 5696 5694 5691
5679 5686 5695 5699 5705 5712 5716 5719 5726 5734 5738 5740 5745 5749 5753 5752 5753 5756 5760 5761 5757 5754 5752 5750 5748 5747 5745 5744 5742 5738 5735 5731 5728 5725 5722 5720 5718 5715 5710 5706 5702 5699 5697 5695
5665 5674 5683 5695 5698 5708 5713 5720 5724 5726 5731 5736 5741 5746 5746 5750 5752 5755 5758 5757 5753 5752 5751 5749 5747 5745 5744 5743 5741 5738 5734 5732 5729 5726 5724 5722 5719 5717 5713 5709 5706 5703 5701 5700
5651 5656 5673 5682 5689 5694 5701 5710 5716 5722 5727 5730 5736 5744 5743 5746 5747 5752 5754 5753 5751 5750 5748 5748 5746 5744 5742 5742 5741 5737 5735 5733 5730 5728 5726 5724 5721 5719 5717 5713 5711 5708 5706 5706
5636 5646 5659 5673 5684 5694 5697 5702 5710 5716 5719 5726 5730 5736 5736 5739 5743 5748 5749 5751 5751 5747 5747 5746 5745 5743 5741 5742 5740 5738 5736 5734 5731 5729 5728 5726 5724 5722 5719 5717 5714 5714 5712 5712
5629 5641 5653 5668 5680 5686 5694 5700 5704 5708 5717 5720 5729 5731 5733 5736 5740 5744 5746 5748 5749 5747 5746 5745 5744 5743 5741 5741 5740 5739 5736 5735 5732 5730 5729 5728 5726 5724 5723 5721 5718 5718 5717 5718
5622 5641 5649 5658 5670 5678 5684 5691 5697 5704 5710 5716 5724 5727 5731 5733 5737 5739 5741 5744 5746 5745 5745 5743 5743 5743 5741 5741 5741 5739 5737 5736 5734 5732 5731 5730 5728 5727 5727 5725 5723 5723 5723 5722
5616 5629 5638 5647 5661 5672 5671 5678 5688 5698 5705 5711 5717 5726 5727 5728 5731 5735 5737 5740 5742 5743 5742 5742 5742 5743 5742 5741 5741 5740 5739 5737 5735 5734 5733 5732 5731 5731 5731 5730 5728 5726 5725 5725
5608 5619 5629 5642 5654 5653 5662 5676 5684 5691 5700 5706 5712 5719 5723 5725 5728 5730 5733 5738 5740 5741 5740 5741 5742 5742 5742 5741 5740 5741 5740 5738 5737 5736 5735 5735 5735 5735 5735 5734 5733 5732 5730 5730
5599 5608 5621 5632 5638 5650 5659 5669 5674 5681 5691 5700 5706 5713 5717 5721 5723 5725 5730 5734 5738 5739 5739 5739 5740 5741 5741 5742 5741 5741 5741 5740 5738 5738 5738 5738 5739 5739 5739 5739 5738 5738 5737 5737
5595 5605 5615 5624 5632 5639 5658 5669 5676 5684 5686 5694 5701 5707 5712 5715 5717 5723 5727 5731 5735 5737 5737 5737 5738 5740 5740 5741 5741 5741 5742 5741 5740 5740 5740 5741 5741 5742 5743 5743 5742 5742 5742 5743
5586 5593 5609 5617 5626 5638 5655 5658 5668 5672 5684 5691 5696 5701 5705 5708 5717 5721 5722 5725 5730 5734 5735 5734 5736 5737 5738 5739 5740 5740 5741 5742 5742 5741 5741 5743 5744 5744 5746 5747 5747 5747 5747 5748
5576 5589 5601 5610 5621 5628 5639 5651 5660 5662 5669 5679 5687 5694 5700 5705 5709 5714 5717 5721 5724 5730 5732 5732 5733 5736 5736 5737 5739 5739 5740 5741 5743 5743 5743 5743 5745 5746 5747 5748 5749 5751 5751 5751
5571 5579 5588 5601 5609 5617 5628 5641 5650 5656 5664 5669 5674 5686 5693 5699 5703 5708 5713 5715 5719 5725 5728 5729 5731 5731 5734 5735 5737 5738 5739 5740 5742 5743 5744 5745 5745 5747 5748 5749 5750 5752 5754 5755
5555 5567 5580 5594 5599 5609 5619 5632 5642 5652 5656 5664 5670 5677 5686 5694 5699 5702 5707 5711 5715 5719 5724 5726 5727 5728 5731 5733 5734 5736 5737 5738 5740 5742 5744 5745 5746 5747 5749 5751 5752 5753 5755 5757
5536 5555 5571 5584 5594 5604 5614 5626 5635 5645 5649 5654 5661 5668 5676 5684 5691 5695 5700 5704 5709 5714 5719 5721 5723 5725 5728 5730 5732 5733 5735 5736 5739 5740 5743 5745 5746 5748 5749 5751 5753 5755 5756 5757
5533 5543 5560 5572 5585 5596 5606 5618 5628 5636 5642 5649 5656 5661 5669 5675 5682 5687 5693 5697 5702 5708 5714 5717 5719 5721 5723 5726 5728 5731 5732 5734 5736 5738 5741 5743 5744 5747 5749 5750 5752 5754 5756 5757